Terminal Aerodrome Forecast
Issued by NWS

Home | Current Version | Previous Version | Text Only | Print | Product List | Glossary On
Versions: 1 2 3 4 5 6 7 8 9 10 11 12 13 14 15 16 17 18 19 20 21 22 23 24 25 26 27
000
FTUS41 KOKX 020200 AAA
TAFGON
TAF AMD
KGON 020230Z 0203/0224 VRB02KT 1SM -SN BR OVC012
     FM020500 VRB03KT 2SM -SN BR OVC010
     FM020700 VRB03KT 4SM BR OVC010
     FM021000 VRB04KT P6SM SCT015 BKN025
     FM021300 30008KT P6SM SCT025 BKN050
     FM021600 31014G24KT P6SM FEW050 SCT250
     FM022300 31011KT P6SM SCT250=

USA.gov is the U.S. government's official web portal to all federal, state and local government web resources and services.